[[{"header":{"parameterUnit":"m.s-1","parameterCategory":1,"la1":30.2991,"la2":30.254,"lo1":-89.0895,"lo2":-89.0444,"dy":0.0017,"dx":0.0017,"nx":28,"ny":28,"refTime":"2024-11-28T09:00:00:Z","depth":0,"parameterNumber":2,"parameterNumberName":"U-component_of_WINDS"},"data":[0,0,0,0,0,0,0,0,0,0,0,0,0,0,0,0,0,0,0,0,0,0,0,0,0,0,0,0,0,0,0,0,0,0,0,0,0,0,0,0,0,0,0,0,0,0,0,0,0,0,0,0,0,0,0,0,0,0,1.7608,1.7611,0,1.785,1.7853,1.7856,1.7877,1.7874,1.7872,1.7869,1.8123,1.8131,1.8141,0,0,0,0,0,0,0,0,0,0,0,0,0,1.7167,1.7175,1.7608,1.7611,1.7614,1.785,1.7853,1.7856,1.7877,1.7874,1.7871,1.7868,1.812,1.813,1.8141,0,0,0,0,0,0,0,0,0,0,0,0,0,1.7379,1.7178,1.7607,1.7653,1.7659,1.7849,1.7853,1.7857,1.7878,1.7874,1.787,1.7866,1.8116,1.8129,1.8143,1.8306,0,0,1.8185,1.8191,0,0,0,0,0,0,0,0,1.7367,1.7395,1.7643,1.765,1.7657,1.7829,1.7791,1.8008,1.7879,1.7795,1.7869,1.7865,1.8028,1.8049,1.8103,1.8318,1.8329,1.8186,1.8194,1.82,1.8204,0,0,0,0,0,0,0,1.7352,1.7385,1.7704,1.7646,1.7655,1.7662,1.7688,1.7832,1.7931,1.7802,1.7804,1.7832,1.8032,1.809,1.8109,1.8332,1.8186,1.8198,1.8206,1.8212,1.8693,1.8697,0,0,0,0,0,0,1.7329,1.7373,1.7696,1.7711,1.7499,1.7673,1.7702,1.7778,1.7929,1.7948,1.7835,1.7832,1.8068,1.8093,1.8118,1.832,1.82,1.8213,1.8221,1.8689,1.8694,1.8699,0,0,0,0,0,0,1.7319,1.7357,1.7686,1.7543,1.7585,1.7685,1.777,1.7785,1.7843,1.7954,1.7973,1.7876,1.8066,1.8099,1.8259,1.8329,1.8219,1.8232,1.8683,1.869,1.8696,1.8723,0,0,0,0,0,0,1.7306,1.7354,1.7416,1.7544,1.7592,1.7822,1.7774,1.7792,1.7866,1.7865,1.7998,1.8016,1.8066,1.8238,1.8272,1.8346,1.8243,1.8677,1.8686,1.8694,1.8716,1.8729,1.8741,0,0,0,0,0,1.729,1.7415,1.7419,1.7458,1.7672,1.7825,1.7854,1.7907,1.7872,1.7936,1.8007,1.8012,1.8315,1.8254,1.8293,1.8371,1.8673,1.8684,1.8694,1.871,1.8727,1.8741,0,0,0,0,0,0,1.7294,1.7432,1.7438,1.7607,1.7704,1.7829,1.7911,1.7922,1.8033,1.8027,1.8089,1.8119,1.8277,1.834,1.827,1.8537,1.8491,1.8509,1.849,1.8507,1.8519,1.8501,1.8254,0,0,0,0,0,1.7314,1.7426,1.7541,1.7679,1.7727,1.781,1.7879,1.7912,1.8015,1.8057,1.814,1.8242,1.836,1.8437,1.8552,1.8725,1.8755,1.8798,1.881,1.882,1.8835,1.8932,1.8953,1.8732,1.8732,1.8732,0,0,1.7358,1.7447,1.7514,1.7682,1.7761,1.7876,1.7845,1.7969,1.8055,1.8076,1.8232,1.8296,1.8414,1.8581,1.8659,1.8639,1.8903,1.8833,1.884,1.885,1.8945,1.8965,1.8984,1.8739,1.8738,1.8737,0,0,1.7496,1.7574,1.7698,1.7777,1.7896,1.795,1.798,1.8103,1.8146,1.8302,1.832,1.8425,1.8627,1.871,1.8779,1.8947,1.8956,1.8983,1.9049,1.9142,1.9159,1.9175,1.9236,1.9257,1.8998,1.8998,1.8998,0,1.7536,1.7709,1.776,1.7883,1.7957,1.7979,1.8105,1.818,1.8331,1.8382,1.8357,1.861,1.8692,1.8878,1.8919,1.8974,1.901,1.8969,1.9152,1.9169,1.9184,1.9243,1.9265,1.9,1.9,1.9,1.9,0,1.7752,1.7872,1.7957,1.8101,1.8184,1.8308,1.8379,1.8458,1.8482,1.854,1.8699,1.8796,1.8931,1.8978,1.9004,1.9169,1.9152,1.9139,1.9094,1.9207,1.9263,1.9286,1.9004,1.9003,1.9002,1.9002,0,0,1.7901,1.807,1.81,1.8165,1.8298,1.8392,1.8517,1.8647,1.8714,1.8817,1.8924,1.9094,1.9082,1.916,1.9196,1.9277,1.9405,1.9254,1.9258,1.9279,1.9593,1.9602,1.9627,1.9411,1.9415,1.9419,1.9583,0,1.8055,1.8276,1.8326,1.8517,1.8629,1.8651,1.876,1.8853,1.891,1.9014,1.9078,1.9197,1.9172,1.9219,1.9301,1.9372,1.9469,1.9361,1.9513,1.9518,1.9483,1.9657,1.9668,1.9818,1.9605,1.9609,1.9612,0,1.8264,1.837,1.8572,1.8689,1.8737,1.8834,1.8957,1.9056,1.9163,1.9199,1.9285,1.9311,1.9444,1.939,1.9574,1.9499,1.9565,1.9609,1.9616,1.9633,1.9572,1.9679,1.9867,1.989,1.9647,1.9644,1.9641,0,1.8353,1.8546,1.8692,1.8747,1.8887,1.8955,1.9016,1.9119,1.9194,1.9302,1.9351,1.9473,1.9541,1.9635,1.9695,1.9651,1.9874,1.9826,1.9909,1.9907,1.9956,1.9952,2.0157,1.9996,1.9996,1.9995,1.9995,0,1.852,1.8643,1.8733,1.8823,1.8962,1.9018,1.9154,1.9216,1.9307,1.941,1.9437,1.9533,1.9605,1.9712,1.976,1.9905,1.9935,1.9968,1.998,1.9967,1.9962,2.0011,2.0002,2.0001,2.0,1.9999,1.9998,0,1.8643,1.8709,1.8869,1.8987,1.902,1.9117,1.9219,1.9308,1.9364,1.9495,1.9528,1.9618,1.9745,1.9813,1.9973,2.0005,2.0167,2.0173,2.0131,2.0136,2.0215,2.0206,2.0459,2.0495,2.0309,2.0311,2.0312,0,1.8746,1.884,1.8968,1.9038,1.9101,1.9214,1.9289,1.9348,1.9426,1.9554,1.9628,1.9756,1.9862,2.0064,2.0144,2.0266,2.0275,2.0355,2.0294,2.0278,2.0277,2.0271,2.0281,2.0366,2.0368,2.037,2.0371,0,1.8921,1.8948,1.9056,1.9175,1.9264,1.9361,1.9457,1.9513,1.9587,1.9674,1.9803,1.9885,2.0047,2.0174,2.0302,2.0367,2.0383,2.0389,2.0415,2.0403,2.0375,2.0391,2.0161,2.0383,2.0382,2.0381,2.038,2.038,1.9038,1.9123,1.9226,1.9345,1.9422,1.9511,1.96,1.9666,1.9775,1.991,1.9938,2.0075,2.0179,2.0353,2.0421,2.053,2.0514,2.0551,2.0561,2.057,2.0573,2.0356,2.0554,2.0553,2.0553,2.0553,2.0553,0,1.9215,1.9282,1.939,1.9522,1.9616,1.9619,1.9725,1.9804,1.9923,2.0018,2.0121,2.027,2.0393,2.0482,2.0608,2.0678,2.0688,2.0709,2.0705,2.072,2.058,2.0545,2.0699,2.0699,2.0698,2.0698,2.0698,2.0698,1.9318,1.9462,1.9501,1.9684,1.9751,1.9884,1.9944,2.0026,2.0103,2.0266,2.0368,2.0424,2.0518,2.0651,2.0764,2.0787,2.0833,2.0853,2.0877,2.0745,2.073,2.0715,2.0683,2.0863,2.0863,2.1009,2.101,2.1011]},{"header":{"parameterUnit":"m.s-1","parameterCategory":1,"la1":30.2991,"la2":30.254,"lo1":-89.0895,"lo2":-89.0444,"dy":0.0017,"dx":0.0017,"nx":28,"ny":28,"refTime":"2024-11-28T09:00:00:Z","depth":0,"parameterNumber":3,"parameterNumberName":"V-component_of_WINDS"},"data":[0,0,0,0,0,0,0,0,0,0,0,0,0,0,0,0,0,0,0,0,0,0,0,0,0,0,0,0,0,0,0,0,0,0,0,0,0,0,0,0,0,0,0,0,0,0,0,0,0,0,0,0,0,0,0,0,0,0,-4.219,-4.2186,0,-4.1791,-4.1786,-4.1781,-4.1735,-4.174,-4.1744,-4.1747,-4.1312,-4.1297,-4.1282,0,0,0,0,0,0,0,0,0,0,0,0,0,-4.2888,-4.2876,-4.219,-4.2185,-4.218,-4.1791,-4.1786,-4.178,-4.1735,-4.174,-4.1745,-4.1749,-4.1317,-4.1299,-4.128,0,0,0,0,0,0,0,0,0,0,0,0,0,-4.2546,-4.2872,-4.2191,-4.2111,-4.21,-4.1792,-4.1786,-4.1779,-4.1734,-4.174,-4.1746,-4.1752,-4.1323,-4.1301,-4.1278,-4.1014,0,0,-4.1207,-4.1197,0,0,0,0,0,0,0,0,-4.2566,-4.252,-4.2128,-4.2116,-4.2103,-4.182,-4.1872,-4.1521,-4.1732,-4.1872,-4.1748,-4.1755,-4.1474,-4.1439,-4.135,-4.0994,-4.0975,-4.1205,-4.1191,-4.1181,-4.1175,0,0,0,0,0,0,0,-4.2589,-4.2537,-4.2031,-4.2122,-4.2107,-4.2087,-4.2045,-4.1805,-4.1643,-4.186,-4.1856,-4.1811,-4.1468,-4.1372,-4.1339,-4.0968,-4.1206,-4.1186,-4.1171,-4.1162,-4.0369,-4.0362,0,0,0,0,0,0,-4.2631,-4.2557,-4.2044,-4.2019,-4.2355,-4.207,-4.2023,-4.1904,-4.1646,-4.1613,-4.1806,-4.181,-4.1409,-4.1366,-4.1324,-4.0993,-4.1182,-4.116,-4.1147,-4.0376,-4.0368,-4.036,0,0,0,0,0,0,-4.2647,-4.2586,-4.206,-4.2287,-4.2219,-4.2052,-4.1918,-4.1893,-4.1797,-4.1605,-4.1573,-4.174,-4.1412,-4.1356,-4.1092,-4.0978,-4.115,-4.1129,-4.0385,-4.0374,-4.0364,-4.0333,0,0,0,0,0,0,-4.2667,-4.2592,-4.2496,-4.2286,-4.2207,-4.1842,-4.1911,-4.1881,-4.1761,-4.1762,-4.1534,-4.1502,-4.1412,-4.1127,-4.1069,-4.0949,-4.1111,-4.0394,-4.038,-4.0367,-4.0344,-4.0323,-4.0305,0,0,0,0,0,-4.2692,-4.2498,-4.2491,-4.2429,-4.2085,-4.1836,-4.179,-4.1699,-4.1752,-4.1649,-4.1526,-4.1509,-4.1002,-4.11,-4.1035,-4.0906,-4.0401,-4.0384,-4.0368,-4.0352,-4.0327,-4.0306,0,0,0,0,0,0,-4.269,-4.2469,-4.2459,-4.2193,-4.2035,-4.1829,-4.1697,-4.1675,-4.1491,-4.1499,-4.1386,-4.1335,-4.1074,-4.0964,-4.1078,-4.0634,-4.0705,-4.0675,-4.0715,-4.0689,-4.0671,-4.0699,-4.1092,0,0,0,0,0,-4.2661,-4.2486,-4.2299,-4.2082,-4.2004,-4.1865,-4.1753,-4.1698,-4.1525,-4.1455,-4.1312,-4.1138,-4.0938,-4.0809,-4.0615,-4.033,-4.0275,-4.0209,-4.019,-4.0175,-4.0147,-3.9982,-3.9948,-4.0306,-4.0306,-4.0307,0,0,-4.2593,-4.2452,-4.2346,-4.2078,-4.1949,-4.1761,-4.1808,-4.1608,-4.1465,-4.1421,-4.1164,-4.1053,-4.0851,-4.0574,-4.0445,-4.0474,-4.0038,-4.0154,-4.0144,-4.0123,-3.9962,-3.9928,-3.9898,-4.0295,-4.0297,-4.0299,0,0,-4.2375,-4.2255,-4.2059,-4.193,-4.1737,-4.1646,-4.1599,-4.1397,-4.1324,-4.1067,-4.1029,-4.0853,-4.0515,-4.0371,-4.0253,-3.9983,-3.9957,-3.9923,-3.9818,-3.9659,-3.9631,-3.9605,-3.9501,-3.9467,-3.9898,-3.9898,-3.9898,0,-4.2314,-4.2039,-4.1958,-4.176,-4.164,-4.1602,-4.1398,-4.1274,-4.1023,-4.0937,-4.0977,-4.0551,-4.0412,-4.0098,-4.0033,-3.9942,-3.9877,-3.9945,-3.9643,-3.9616,-3.9591,-3.9491,-3.9453,-3.9894,-3.9895,-3.9895,-3.9895,0,-4.1969,-4.1779,-4.1643,-4.1412,-4.1276,-4.1076,-4.0957,-4.0828,-4.0785,-4.0688,-4.0422,-4.0256,-4.0026,-3.9949,-3.9901,-3.9626,-3.965,-3.9669,-3.9735,-3.9555,-3.9458,-3.942,-3.9889,-3.9891,-3.9892,-3.9892,0,0,-4.1732,-4.1464,-4.1414,-4.1307,-4.1093,-4.0939,-4.0734,-4.0519,-4.0407,-4.0237,-4.0056,-3.9772,-3.9787,-3.9654,-3.959,-3.9451,-3.924,-3.9484,-3.9478,-3.9439,-3.8919,-3.8902,-3.886,-3.9226,-3.9218,-3.9212,-3.8933,0,-4.1485,-4.1129,-4.1051,-4.0739,-4.0558,-4.052,-4.034,-4.0184,-4.0088,-3.9913,-3.9804,-3.9602,-3.9642,-3.956,-3.9422,-3.9296,-3.9132,-3.9315,-3.9046,-3.9038,-3.9092,-3.881,-3.8791,-3.8536,-3.8896,-3.889,-3.8885,0,-4.1147,-4.0977,-4.065,-4.0459,-4.0379,-4.0221,-4.0015,-3.9852,-3.9672,-3.9611,-3.9465,-3.9416,-3.9192,-3.9278,-3.8963,-3.9089,-3.8975,-3.8896,-3.8884,-3.8848,-3.8945,-3.876,-3.8453,-3.8412,-3.8826,-3.8831,-3.8835,0,-4.0999,-4.0688,-4.0451,-4.0362,-4.0134,-4.0022,-3.992,-3.9748,-3.9622,-3.944,-3.9356,-3.9148,-3.9032,-3.8868,-3.876,-3.8834,-3.8452,-3.8529,-3.8386,-3.8388,-3.8301,-3.8306,-3.7964,-3.824,-3.8241,-3.8242,-3.8242,0,-4.0726,-4.0525,-4.0382,-4.0235,-4.0007,-3.9918,-3.9691,-3.9588,-3.9435,-3.9261,-3.9215,-3.905,-3.8923,-3.8739,-3.8653,-3.8402,-3.8351,-3.8288,-3.8266,-3.8288,-3.8295,-3.8205,-3.8217,-3.8231,-3.8234,-3.8236,-3.8237,0,-4.0518,-4.0416,-4.0155,-3.9963,-3.991,-3.975,-3.9581,-3.9432,-3.9339,-3.9119,-3.9061,-3.8908,-3.8689,-3.857,-3.8292,-3.8234,-3.7951,-3.7942,-3.8014,-3.8003,-3.7864,-3.7876,-3.7446,-3.7381,-3.7708,-3.7706,-3.7703,0,-4.0348,-4.0194,-3.9988,-3.9873,-3.9772,-3.9586,-3.946,-3.9364,-3.9233,-3.9017,-3.8892,-3.8674,-3.8492,-3.8143,-3.8001,-3.7787,-3.7767,-3.7632,-3.7734,-3.776,-3.7756,-3.7764,-3.7744,-3.7611,-3.7608,-3.7606,-3.7604,0,-4.0052,-4.001,-3.9836,-3.9642,-3.9495,-3.9335,-3.9177,-3.9083,-3.8959,-3.8813,-3.8594,-3.8454,-3.8176,-3.7954,-3.7731,-3.7615,-3.7583,-3.7575,-3.7528,-3.7545,-3.759,-3.7556,-3.7957,-3.7582,-3.7584,-3.7586,-3.7587,-3.7588,-3.9852,-3.9712,-3.9547,-3.9351,-3.9225,-3.9078,-3.8929,-3.882,-3.8638,-3.8409,-3.8362,-3.8128,-3.7947,-3.7645,-3.7525,-3.7334,-3.7358,-3.7294,-3.7275,-3.7259,-3.725,-3.7629,-3.7293,-3.7293,-3.7294,-3.7294,-3.7295,0,-3.9548,-3.9442,-3.9265,-3.9048,-3.8893,-3.8892,-3.8715,-3.8583,-3.8381,-3.822,-3.8045,-3.779,-3.7576,-3.7421,-3.72,-3.7077,-3.7056,-3.7021,-3.7024,-3.6997,-3.7244,-3.7303,-3.7041,-3.7041,-3.7041,-3.7041,-3.7041,-3.7041,-3.9372,-3.9134,-3.9072,-3.8768,-3.8659,-3.8437,-3.8336,-3.8197,-3.8069,-3.7789,-3.7615,-3.7519,-3.7356,-3.7125,-3.6925,-3.6884,-3.6801,-3.6766,-3.6722,-3.6954,-3.698,-3.7006,-3.706,-3.6751,-3.6751,-3.6489,-3.6487,-3.6485]}]]